TRA771 YBBN-AYPY

Flight info

Callsign TRA771
Flight time 2h 38m
Altitude 44000
Route YBBN N0524F440 WACKO4 TAPET Q67 RUMKA R346 MABRO LOTGU1 AYPY
Aircraft C750/L-SDE2E3FGIJ1RWYZ/L

Departure

Time 2026-04-25 10:05
Airport Brisbane International Airport (YBBN)

Arrival

Time 2026-04-25 12:43
Airport Port Moresby Jacksons International Airport (AYPY)
Time Latitude Longitude Altitude Speed Heading
2026-04-25 09:56 -27.39008 153.11808 12 ft 0 kts 207°
2026-04-25 10:02 -27.39011 153.11806 14 ft 3 kts 204°
2026-04-25 10:02 -27.39015 153.11806 14 ft 6 kts 182°
2026-04-25 10:02 -27.39078 153.11914 14 ft 19 kts 121°
2026-04-25 10:02 -27.39119 153.12075 14 ft 29 kts 86°
2026-04-25 10:03 -27.39093 153.12267 15 ft 22 kts 34°
2026-04-25 10:03 -27.38940 153.12358 15 ft 30 kts 28°
2026-04-25 10:03 -27.38758 153.12466 15 ft 29 kts 25°
2026-04-25 10:03 -27.38569 153.12573 15 ft 49 kts 29°
2026-04-25 10:04 -27.38371 153.12684 15 ft 51 kts 28°
2026-04-25 10:04 -27.38089 153.12843 15 ft 33 kts 31°
2026-04-25 10:04 -27.38108 153.13021 21 ft 26 kts 161°
2026-04-25 10:04 -27.38551 153.12816 19 ft 121 kts 206°
2026-04-25 10:05 -27.39460 153.12293 203 ft 163 kts 206°
2026-04-25 10:05 -27.40551 153.11644 698 ft 190 kts 206°
2026-04-25 10:05 -27.41727 153.10911 1613 ft 191 kts 204°
2026-04-25 10:05 -27.42634 153.09860 1451 ft 201 kts 237°
2026-04-25 10:06 -27.42796 153.08131 456 ft 251 kts 278°
2026-04-25 10:06 -27.42266 153.06283 319 ft 238 kts 288°
2026-04-25 10:06 -27.41691 153.04544 421 ft 249 kts 288°
2026-04-25 10:06 -27.41089 153.02704 1558 ft 249 kts 287°
2026-04-25 10:07 -27.40455 153.00807 2381 ft 270 kts 288°
2026-04-25 10:07 -27.39779 152.98826 3326 ft 280 kts 289°
2026-04-25 10:07 -27.38612 152.96987 4162 ft 290 kts 319°
2026-04-25 10:07 -27.36999 152.95661 5404 ft 287 kts 327°
2026-04-25 10:08 -27.35419 152.94234 6340 ft 296 kts 319°
2026-04-25 10:08 -27.33993 152.92540 7332 ft 300 kts 313°
2026-04-25 10:08 -27.32598 152.90819 8362 ft 304 kts 315°
2026-04-25 10:08 -27.31093 152.89133 9469 ft 307 kts 317°
2026-04-25 10:09 -27.29549 152.87449 10448 ft 312 kts 317°
2026-04-25 10:09 -27.27961 152.85659 10865 ft 336 kts 316°
2026-04-25 10:09 -27.26259 152.83709 11053 ft 363 kts 316°
2026-04-25 10:09 -27.24426 152.81632 11458 ft 378 kts 316°
2026-04-25 10:10 -27.22570 152.79546 12365 ft 377 kts 316°
2026-04-25 10:10 -27.20635 152.77536 12998 ft 382 kts 324°
2026-04-25 10:10 -27.18230 152.76293 13718 ft 380 kts 347°
2026-04-25 10:10 -27.15625 152.75983 14435 ft 377 kts
2026-04-25 10:11 -27.13034 152.76423 15112 ft 377 kts 13°
2026-04-25 10:11 -27.10442 152.76966 15771 ft 381 kts 13°
2026-04-25 10:11 -27.07820 152.77500 16424 ft 385 kts 12°
2026-04-25 10:11 -27.05160 152.78013 17107 ft 390 kts 12°
2026-04-25 10:12 -27.02508 152.78528 17796 ft 394 kts 12°
2026-04-25 10:12 -26.99798 152.79070 18511 ft 398 kts 12°
2026-04-25 10:12 -26.94281 152.80163 19815 ft 406 kts 11°
2026-04-25 10:13 -26.91475 152.80713 20483 ft 411 kts 11°
2026-04-25 10:13 -26.88638 152.81274 21150 ft 416 kts 10°
2026-04-25 10:13 -26.85773 152.81841 21818 ft 420 kts 10°
2026-04-25 10:13 -26.82877 152.82411 22483 ft 425 kts
2026-04-25 10:14 -26.79944 152.82987 23151 ft 429 kts
2026-04-25 10:14 -26.77022 152.83562 23817 ft 433 kts
2026-04-25 10:14 -26.74039 152.84149 24366 ft 437 kts
2026-04-25 10:14 -26.71027 152.84742 24921 ft 441 kts
2026-04-25 10:15 -26.67990 152.85338 25466 ft 445 kts
2026-04-25 10:15 -26.64925 152.85940 26018 ft 448 kts
2026-04-25 10:15 -26.61840 152.86546 26553 ft 452 kts
2026-04-25 10:15 -26.58717 152.87158 27105 ft 456 kts
2026-04-25 10:16 -26.55588 152.87772 27651 ft 459 kts
2026-04-25 10:16 -26.52419 152.88393 28194 ft 463 kts
2026-04-25 10:16 -26.49237 152.89016 28752 ft 466 kts
2026-04-25 10:16 -26.46021 152.89646 29290 ft 470 kts
2026-04-25 10:17 -26.42791 152.90278 29823 ft 474 kts
2026-04-25 10:17 -26.39527 152.90916 30345 ft 478 kts
2026-04-25 10:17 -26.36279 152.91550 30743 ft 482 kts
2026-04-25 10:17 -26.32944 152.92202 31123 ft 487 kts
2026-04-25 10:18 -26.29592 152.92856 31620 ft 489 kts
2026-04-25 10:18 -26.26233 152.93512 32094 ft 491 kts
2026-04-25 10:18 -26.22850 152.94171 32558 ft 494 kts
2026-04-25 10:18 -26.19455 152.94820 33031 ft 496 kts
2026-04-25 10:19 -26.16004 152.95052 33438 ft 497 kts 356°
2026-04-25 10:19 -26.12569 152.94690 33962 ft 495 kts 347°
2026-04-25 10:19 -26.09240 152.93754 34420 ft 493 kts 338°
2026-04-25 10:19 -26.06139 152.92302 34922 ft 487 kts 328°
2026-04-25 10:20 -26.03272 152.90363 35498 ft 479 kts 320°
2026-04-25 10:20 -26.00584 152.88197 36078 ft 477 kts 319°
2026-04-25 10:20 -25.97896 152.86044 36657 ft 476 kts 319°
2026-04-25 10:20 -25.95206 152.83898 37246 ft 474 kts 319°
2026-04-25 10:21 -25.92533 152.81756 37844 ft 473 kts 318°
2026-04-25 10:21 -25.89876 152.79621 38463 ft 471 kts 318°
2026-04-25 10:21 -25.87220 152.77494 39033 ft 470 kts 318°
2026-04-25 10:21 -25.84569 152.75378 39554 ft 468 kts 318°
2026-04-25 10:22 -25.81926 152.73266 40063 ft 467 kts 318°
2026-04-25 10:22 -25.79294 152.71162 40577 ft 465 kts 319°
2026-04-25 10:22 -25.76670 152.69065 41093 ft 464 kts 319°
2026-04-25 10:22 -25.74054 152.66979 41621 ft 462 kts 319°
2026-04-25 10:23 -25.71446 152.64900 42154 ft 461 kts 319°
2026-04-25 10:23 -25.68846 152.62826 42657 ft 459 kts 319°
2026-04-25 10:23 -25.66251 152.60758 43157 ft 458 kts 319°
2026-04-25 10:23 -25.63701 152.58728 43659 ft 457 kts 319°
2026-04-25 10:24 -25.61122 152.56675 44156 ft 456 kts 319°
2026-04-25 10:24 -25.55879 152.52498 44221 ft 473 kts 319°
2026-04-25 10:25 -25.50433 152.48178 44237 ft 489 kts 320°
2026-04-25 10:25 -25.44827 152.43728 44232 ft 502 kts 320°
2026-04-25 10:26 -25.39090 152.39184 44230 ft 511 kts 320°
2026-04-25 10:26 -25.33267 152.34575 44224 ft 516 kts 320°
2026-04-25 10:27 -25.27423 152.29956 44222 ft 516 kts 320°
2026-04-25 10:27 -25.21617 152.25371 44211 ft 516 kts 320°
2026-04-25 10:28 -25.15781 152.20769 44207 ft 515 kts 320°
2026-04-25 10:28 -25.09940 152.16168 44199 ft 515 kts 319°
2026-04-25 10:29 -25.04104 152.11576 44209 ft 515 kts 319°
2026-04-25 10:29 -24.98270 152.07000 44209 ft 514 kts 319°
2026-04-25 10:30 -24.92427 152.02429 44198 ft 514 kts 319°
2026-04-25 10:30 -24.86598 151.97869 44202 ft 514 kts 319°
2026-04-25 10:31 -24.80759 151.93312 44208 ft 514 kts 319°
2026-04-25 10:31 -24.74906 151.88741 44205 ft 519 kts 317°
2026-04-25 10:32 -24.69000 151.84143 44208 ft 521 kts 317°
2026-04-25 10:32 -24.63085 151.79539 44208 ft 520 kts 317°
2026-04-25 10:33 -24.57173 151.74943 44197 ft 521 kts 317°
2026-04-25 10:33 -24.51285 151.70373 44197 ft 520 kts 317°
2026-04-25 10:34 -24.45374 151.65788 44198 ft 520 kts 317°
2026-04-25 10:34 -24.39451 151.61201 44193 ft 521 kts 316°
2026-04-25 10:35 -24.33531 151.56620 44191 ft 521 kts 316°
2026-04-25 10:35 -24.27594 151.52032 44189 ft 522 kts 316°
2026-04-25 10:36 -24.21654 151.47447 44182 ft 523 kts 316°
2026-04-25 10:36 -24.15740 151.42888 44191 ft 523 kts 316°
2026-04-25 10:37 -24.09789 151.38305 44191 ft 524 kts 316°
2026-04-25 10:37 -24.03814 151.33709 44191 ft 524 kts 316°
2026-04-25 10:38 -23.97843 151.29122 44201 ft 524 kts 316°
2026-04-25 10:38 -23.91870 151.24538 44204 ft 524 kts 316°
2026-04-25 10:39 -23.85891 151.20023 44185 ft 529 kts 319°
2026-04-25 10:39 -23.79520 151.15948 44217 ft 531 kts 320°
2026-04-25 10:40 -23.73162 151.11845 44208 ft 531 kts 320°
2026-04-25 10:40 -23.66792 151.07767 44185 ft 531 kts 320°
2026-04-25 10:41 -23.60429 151.03686 44164 ft 530 kts 320°
2026-04-25 10:41 -23.54064 150.99611 44162 ft 530 kts 320°
2026-04-25 10:42 -23.47699 150.95542 44159 ft 529 kts 320°
2026-04-25 10:42 -23.41387 150.91510 44158 ft 529 kts 320°
2026-04-25 10:43 -23.35029 150.87454 44154 ft 528 kts 320°
2026-04-25 10:43 -23.28683 150.83409 44160 ft 528 kts 320°
2026-04-25 10:44 -23.22348 150.79377 44159 ft 527 kts 320°
2026-04-25 10:44 -23.20254 150.78045 44161 ft 527 kts 320°
2026-04-25 10:45 -23.14817 150.74588 44159 ft 526 kts 319°
2026-04-25 10:45 -23.08489 150.70570 44153 ft 526 kts 319°
2026-04-25 10:46 -23.02184 150.66571 44160 ft 524 kts 319°
2026-04-25 10:46 -22.95891 150.62583 44155 ft 523 kts 319°
2026-04-25 10:47 -22.89613 150.58610 44152 ft 521 kts 319°
2026-04-25 10:47 -22.84415 150.55323 44145 ft 519 kts 319°
2026-04-25 10:48 -22.78182 150.51385 44148 ft 518 kts 319°
2026-04-25 10:48 -22.70962 150.46830 44158 ft 516 kts 319°
2026-04-25 10:49 -22.65764 150.43553 44150 ft 515 kts 319°
2026-04-25 10:49 -22.59625 150.39688 44149 ft 513 kts 319°
2026-04-25 10:50 -22.53455 150.35807 44144 ft 511 kts 319°
2026-04-25 10:50 -22.47319 150.31950 44147 ft 509 kts 319°
2026-04-25 10:51 -22.41196 150.28107 44148 ft 508 kts 319°
2026-04-25 10:51 -22.35103 150.24286 44147 ft 506 kts 318°
2026-04-25 10:52 -22.29015 150.20472 44140 ft 504 kts 318°
2026-04-25 10:52 -22.23036 150.16620 44144 ft 501 kts 317°
2026-04-25 10:53 -22.17067 150.12726 44138 ft 500 kts 317°
2026-04-25 10:53 -22.11131 150.08847 44136 ft 498 kts 317°
2026-04-25 10:54 -22.05242 150.05007 44143 ft 496 kts 317°
2026-04-25 10:54 -21.99304 150.01136 44135 ft 495 kts 317°
2026-04-25 10:55 -21.93454 149.97328 44140 ft 493 kts 317°
2026-04-25 10:55 -21.87587 149.93511 44138 ft 492 kts 317°
2026-04-25 10:56 -21.81733 149.89707 44133 ft 491 kts 317°
2026-04-25 10:56 -21.75888 149.85912 44130 ft 489 kts 317°
2026-04-25 10:57 -21.70065 149.82135 44125 ft 488 kts 317°
2026-04-25 10:57 -21.64255 149.78371 44124 ft 487 kts 317°
2026-04-25 10:58 -21.58460 149.74619 44126 ft 485 kts 317°
2026-04-25 10:58 -21.52727 149.70911 44124 ft 484 kts 317°
2026-04-25 10:59 -21.46966 149.67189 44121 ft 482 kts 317°
2026-04-25 10:59 -21.41223 149.63481 44129 ft 481 kts 317°
2026-04-25 11:00 -21.35482 149.59779 44115 ft 480 kts 317°
2026-04-25 11:00 -21.29754 149.56088 44127 ft 479 kts 317°
2026-04-25 11:01 -21.24039 149.52409 44121 ft 479 kts 317°
2026-04-25 11:01 -21.18326 149.48734 44121 ft 478 kts 317°
2026-04-25 11:02 -21.12623 149.45070 44117 ft 478 kts 317°
2026-04-25 11:02 -21.06960 149.41434 44128 ft 477 kts 318°
2026-04-25 11:03 -21.01265 149.37781 44122 ft 477 kts 318°
2026-04-25 11:03 -20.95566 149.34129 44114 ft 477 kts 318°
2026-04-25 11:04 -20.89866 149.30479 44115 ft 476 kts 318°
2026-04-25 11:04 -20.84182 149.26843 44119 ft 476 kts 318°
2026-04-25 11:05 -20.78502 149.23213 44116 ft 476 kts 318°
2026-04-25 11:05 -20.72816 149.19582 44112 ft 476 kts 318°
2026-04-25 11:06 -20.67127 149.15953 44124 ft 476 kts 318°
2026-04-25 11:06 -20.61477 149.12351 44121 ft 476 kts 318°
2026-04-25 11:07 -20.55787 149.08727 44118 ft 476 kts 319°
2026-04-25 11:07 -20.50094 149.05105 44124 ft 476 kts 319°
2026-04-25 11:08 -20.44410 149.01491 44121 ft 475 kts 319°
2026-04-25 11:08 -20.38725 148.97879 44119 ft 475 kts 319°
2026-04-25 11:09 -20.33296 148.94055 44129 ft 464 kts 311°
2026-04-25 11:09 -20.28248 148.89763 44128 ft 465 kts 312°
2026-04-25 11:10 -20.23171 148.85485 44126 ft 465 kts 312°
2026-04-25 11:10 -20.18103 148.81190 44120 ft 466 kts 312°
2026-04-25 11:11 -20.13019 148.76903 44113 ft 466 kts 312°
2026-04-25 11:11 -20.07933 148.72608 44107 ft 466 kts 312°
2026-04-25 11:12 -20.02839 148.68315 44109 ft 467 kts 312°
2026-04-25 11:12 -19.97778 148.64051 44110 ft 467 kts 312°
2026-04-25 11:13 -19.92672 148.59754 44101 ft 468 kts 312°
2026-04-25 11:13 -19.87564 148.55459 44107 ft 468 kts 312°
2026-04-25 11:14 -19.82451 148.51163 44104 ft 469 kts 313°
2026-04-25 11:14 -19.77338 148.46870 44103 ft 469 kts 313°
2026-04-25 11:15 -19.72209 148.42568 44103 ft 470 kts 313°
2026-04-25 11:15 -19.67077 148.38266 44104 ft 470 kts 313°
2026-04-25 11:16 -19.59361 148.31807 44101 ft 471 kts 313°
2026-04-25 11:16 -19.54216 148.27503 44100 ft 471 kts 313°
2026-04-25 11:17 -19.49065 148.23199 44100 ft 471 kts 313°
2026-04-25 11:17 -19.43947 148.18926 44098 ft 472 kts 313°
2026-04-25 11:18 -19.38785 148.14620 44100 ft 472 kts 313°
2026-04-25 11:18 -19.33622 148.10317 44106 ft 472 kts 313°
2026-04-25 11:19 -19.28446 148.06005 44099 ft 473 kts 313°
2026-04-25 11:19 -19.23271 148.01699 44094 ft 473 kts 313°
2026-04-25 11:20 -19.18086 147.97388 44097 ft 473 kts 314°
2026-04-25 11:20 -19.12936 147.93109 44089 ft 474 kts 314°
2026-04-25 11:21 -19.07747 147.88801 44092 ft 475 kts 314°
2026-04-25 11:21 -19.02549 147.84490 44093 ft 475 kts 314°
2026-04-25 11:22 -18.98223 147.80904 44095 ft 475 kts 314°
2026-04-25 11:22 -18.92134 147.75862 44091 ft 475 kts 314°
2026-04-25 11:23 -18.86925 147.71552 44091 ft 475 kts 314°
2026-04-25 11:23 -18.81709 147.67239 44092 ft 476 kts 314°
2026-04-25 11:24 -18.76491 147.62929 44090 ft 477 kts 314°
2026-04-25 11:24 -18.71292 147.58637 44084 ft 477 kts 314°
2026-04-25 11:25 -18.66055 147.54318 44092 ft 477 kts 314°
2026-04-25 11:25 -18.60814 147.49999 44090 ft 478 kts 314°
2026-04-25 11:26 -18.55563 147.45676 44092 ft 478 kts 314°
2026-04-25 11:26 -18.50350 147.41386 44091 ft 479 kts 314°
2026-04-25 11:27 -18.45060 147.37037 44087 ft 479 kts 314°
2026-04-25 11:27 -18.40675 147.33435 44090 ft 480 kts 314°
2026-04-25 11:28 -18.34547 147.28405 44093 ft 480 kts 314°
2026-04-25 11:28 -18.29267 147.24075 44090 ft 481 kts 315°
2026-04-25 11:29 -18.23986 147.19747 44088 ft 481 kts 315°
2026-04-25 11:29 -18.18702 147.15420 44091 ft 482 kts 315°
2026-04-25 11:30 -18.13405 147.11086 44084 ft 482 kts 315°
2026-04-25 11:30 -18.08107 147.06754 44092 ft 483 kts 315°
2026-04-25 11:31 -18.02838 147.02450 44085 ft 483 kts 315°
2026-04-25 11:31 -17.97527 146.98115 44086 ft 483 kts 315°
2026-04-25 11:32 -17.92210 146.93778 44094 ft 484 kts 315°
2026-04-25 11:32 -17.86884 146.89437 44086 ft 484 kts 315°
2026-04-25 11:33 -17.81096 146.85664 44076 ft 499 kts 328°
2026-04-25 11:33 -17.75545 146.83765 44087 ft 513 kts 341°
2026-04-25 11:34 -17.68309 146.83245 44088 ft 528 kts 356°
2026-04-25 11:34 -17.60959 146.83615 44096 ft 528 kts 356°
2026-04-25 11:35 -17.53603 146.83953 44095 ft 528 kts 356°
2026-04-25 11:35 -17.46315 146.84312 44094 ft 528 kts 356°
2026-04-25 11:36 -17.38985 146.84655 44082 ft 527 kts 356°
2026-04-25 11:36 -17.31650 146.85010 44079 ft 527 kts 356°
2026-04-25 11:37 -17.24322 146.85356 44071 ft 526 kts 356°
2026-04-25 11:37 -17.16994 146.85707 44074 ft 526 kts 356°
2026-04-25 11:38 -17.09717 146.86053 44078 ft 526 kts 356°
2026-04-25 11:38 -17.02407 146.86401 44071 ft 526 kts 356°
2026-04-25 11:39 -16.95086 146.86749 44070 ft 525 kts 356°
2026-04-25 11:39 -16.87782 146.87097 44072 ft 525 kts 357°
2026-04-25 11:40 -16.80528 146.87441 44065 ft 525 kts 357°
2026-04-25 11:40 -16.73230 146.87787 44062 ft 525 kts 357°
2026-04-25 11:41 -16.65930 146.88133 44063 ft 524 kts 357°
2026-04-25 11:41 -16.58645 146.88478 44066 ft 524 kts 357°
2026-04-25 11:42 -16.51351 146.88824 44062 ft 524 kts 357°
2026-04-25 11:42 -16.44066 146.89168 44057 ft 524 kts 357°
2026-04-25 11:43 -16.36778 146.89513 44060 ft 524 kts 357°
2026-04-25 11:43 -16.29534 146.89855 44057 ft 524 kts 357°
2026-04-25 11:44 -16.22244 146.90202 44059 ft 524 kts 357°
2026-04-25 11:44 -16.14950 146.90549 44052 ft 524 kts 357°
2026-04-25 11:45 -16.07664 146.90896 44054 ft 523 kts 358°
2026-04-25 11:45 -16.00392 146.91241 44052 ft 523 kts 358°
2026-04-25 11:46 -15.93120 146.91586 44052 ft 523 kts 358°
2026-04-25 11:46 -15.85891 146.91929 44046 ft 523 kts 358°
2026-04-25 11:47 -15.78612 146.92274 44049 ft 523 kts 358°
2026-04-25 11:47 -15.71346 146.92618 44048 ft 523 kts 358°
2026-04-25 11:48 -15.64076 146.92963 44045 ft 523 kts 358°
2026-04-25 11:48 -15.56796 146.93307 44041 ft 523 kts 358°
2026-04-25 11:49 -15.49563 146.93649 44043 ft 523 kts 358°
2026-04-25 11:49 -15.42290 146.93992 44041 ft 523 kts 358°
2026-04-25 11:50 -15.35016 146.94336 44037 ft 523 kts 358°
2026-04-25 11:50 -15.27734 146.94679 44033 ft 523 kts 358°
2026-04-25 11:51 -15.20444 146.95023 44033 ft 523 kts 358°
2026-04-25 11:51 -15.13162 146.95366 44027 ft 523 kts 358°
2026-04-25 11:52 -15.05937 146.95706 44035 ft 523 kts 358°
2026-04-25 11:52 -14.98654 146.96048 44035 ft 523 kts 358°
2026-04-25 11:53 -14.91377 146.96391 44034 ft 524 kts 358°
2026-04-25 11:53 -14.84104 146.96732 44021 ft 523 kts 358°
2026-04-25 11:54 -14.76814 146.97074 44018 ft 523 kts 358°
2026-04-25 11:55 -14.65883 146.97587 44024 ft 523 kts 358°
2026-04-25 11:55 -14.58650 146.97926 44022 ft 524 kts 359°
2026-04-25 11:56 -14.51364 146.98267 44020 ft 524 kts 359°
2026-04-25 11:56 -14.44079 146.98608 44030 ft 524 kts 359°
2026-04-25 11:57 -14.36796 146.98949 44025 ft 524 kts 359°
2026-04-25 11:57 -14.29508 146.99290 44021 ft 524 kts 359°
2026-04-25 11:58 -14.22215 146.99630 44021 ft 524 kts 359°
2026-04-25 11:58 -14.14930 146.99970 44020 ft 524 kts 359°
2026-04-25 11:59 -14.07693 147.00308 44016 ft 524 kts 359°
2026-04-25 11:59 -14.00404 147.00648 44015 ft 524 kts 359°
2026-04-25 12:00 -13.89468 147.01153 44013 ft 524 kts 359°
2026-04-25 12:01 -13.78577 147.01656 44018 ft 524 kts 359°
2026-04-25 12:01 -13.71295 147.01991 44014 ft 524 kts 359°
2026-04-25 12:02 -13.60371 147.02495 44023 ft 524 kts 359°
2026-04-25 12:02 -13.53085 147.02830 44015 ft 523 kts 359°
2026-04-25 12:03 -13.45814 147.03165 44010 ft 523 kts 359°
2026-04-25 12:03 -13.38530 147.03500 44008 ft 523 kts 359°
2026-04-25 12:04 -13.31269 147.03833 44005 ft 523 kts 359°
2026-04-25 12:04 -13.24042 147.04165 44002 ft 522 kts 359°
2026-04-25 12:05 -13.16769 147.04499 43998 ft 522 kts 359°
2026-04-25 12:05 -13.09508 147.04832 43995 ft 521 kts 359°
2026-04-25 12:06 -13.02256 147.05165 43992 ft 521 kts 359°
2026-04-25 12:06 -12.95017 147.05496 43998 ft 521 kts 359°
2026-04-25 12:07 -12.87772 147.05828 43995 ft 521 kts 359°
2026-04-25 12:07 -12.80580 147.06157 43989 ft 520 kts 359°
2026-04-25 12:08 -12.73338 147.06489 43989 ft 520 kts 359°
2026-04-25 12:08 -12.66105 147.06819 43988 ft 520 kts 359°
2026-04-25 12:09 -12.58882 147.07149 43989 ft 520 kts 359°
2026-04-25 12:09 -12.51665 147.07479 43986 ft 519 kts 359°
2026-04-25 12:10 -12.44445 147.07808 43993 ft 519 kts 359°
2026-04-25 12:10 -12.37233 147.08137 43988 ft 518 kts 359°
2026-04-25 12:11 -12.30065 147.08464 43985 ft 518 kts 359°
2026-04-25 12:11 -12.22852 147.08792 43977 ft 518 kts 359°
2026-04-25 12:12 -12.16869 147.09065 43982 ft 518 kts 359°
2026-04-25 12:12 -12.08461 147.09448 43976 ft 517 kts 360°
2026-04-25 12:13 -12.01265 147.09775 43980 ft 517 kts 359°
2026-04-25 12:13 -11.95285 147.10050 43978 ft 517 kts 360°
2026-04-25 12:14 -11.89539 147.10323 43973 ft 517 kts 360°
2026-04-25 12:14 -11.82346 147.10656 43971 ft 516 kts 360°
2026-04-25 12:15 -11.75165 147.10992 43975 ft 516 kts 360°
2026-04-25 12:15 -11.67990 147.11326 43969 ft 516 kts 360°
2026-04-25 12:16 -11.60854 147.11659 43969 ft 516 kts 360°
2026-04-25 12:16 -11.53673 147.11993 43968 ft 516 kts 360°
2026-04-25 12:17 -11.46504 147.12327 43964 ft 515 kts 360°
2026-04-25 12:17 -11.39341 147.12660 43965 ft 515 kts
2026-04-25 12:18 -11.32182 147.12993 43965 ft 515 kts 360°
2026-04-25 12:18 -11.25020 147.13326 43962 ft 515 kts 360°
2026-04-25 12:19 -11.14307 147.13824 43957 ft 515 kts
2026-04-25 12:20 -11.07154 147.14156 43962 ft 514 kts 360°
2026-04-25 12:20 -11.03602 147.14322 43943 ft 501 kts
2026-04-25 12:20 -11.01380 147.14430 43891 ft 466 kts 360°
2026-04-25 12:20 -10.98261 147.14579 43662 ft 434 kts 359°
2026-04-25 12:21 -10.95310 147.14714 42904 ft 420 kts 359°
2026-04-25 12:21 -10.92354 147.14848 40667 ft 436 kts 359°
2026-04-25 12:21 -10.89249 147.14993 38061 ft 446 kts 360°
2026-04-25 12:21 -10.86207 147.15157 35536 ft 429 kts
2026-04-25 12:22 -10.82374 147.15458 32689 ft 405 kts
2026-04-25 12:22 -10.80518 147.15748 31298 ft 394 kts
2026-04-25 12:22 -10.77882 147.16321 29294 ft 381 kts 11°
2026-04-25 12:22 -10.75381 147.17020 27296 ft 367 kts 16°
2026-04-25 12:23 -10.73034 147.17933 25440 ft 355 kts 22°
2026-04-25 12:23 -10.70846 147.19006 23788 ft 342 kts 27°
2026-04-25 12:23 -10.68804 147.20129 22352 ft 322 kts 33°
2026-04-25 12:23 -10.67197 147.21435 22078 ft 274 kts 41°
2026-04-25 12:24 -10.65849 147.22556 22098 ft 229 kts 36°
2026-04-25 12:24 -10.64572 147.23340 22076 ft 213 kts 27°
2026-04-25 12:24 -10.63145 147.24099 22199 ft 249 kts 27°
2026-04-25 12:24 -10.61528 147.25003 22416 ft 281 kts 29°
2026-04-25 12:25 -10.59740 147.26041 22673 ft 311 kts 30°
2026-04-25 12:25 -10.57769 147.27180 22933 ft 340 kts 29°
2026-04-25 12:25 -10.55623 147.28402 23173 ft 367 kts 29°
2026-04-25 12:25 -10.53295 147.29727 23251 ft 397 kts 29°
2026-04-25 12:26 -10.50837 147.31135 23384 ft 422 kts 29°
2026-04-25 12:26 -10.48213 147.32638 23549 ft 443 kts 29°
2026-04-25 12:26 -10.45505 147.34185 23605 ft 440 kts 29°
2026-04-25 12:26 -10.42916 147.35662 23596 ft 411 kts 29°
2026-04-25 12:27 -10.40491 147.37047 23586 ft 395 kts 29°
2026-04-25 12:27 -10.38086 147.38422 23591 ft 404 kts 29°
2026-04-25 12:27 -10.35552 147.39869 23595 ft 431 kts 29°
2026-04-25 12:27 -10.32866 147.41401 23619 ft 456 kts 29°
2026-04-25 12:28 -10.30027 147.43021 23617 ft 478 kts 29°
2026-04-25 12:28 -10.26951 147.44466 23551 ft 498 kts 17°
2026-04-25 12:28 -10.23493 147.44948 23568 ft 507 kts 359°
2026-04-25 12:28 -10.20005 147.44403 23564 ft 508 kts 342°
2026-04-25 12:29 -10.16731 147.43092 23618 ft 508 kts 335°
2026-04-25 12:29 -10.13499 147.41616 23617 ft 509 kts 334°
2026-04-25 12:29 -10.10267 147.40131 23603 ft 510 kts 335°
2026-04-25 12:29 -10.06998 147.38720 23610 ft 511 kts 336°
2026-04-25 12:30 -10.03736 147.37337 23465 ft 507 kts 336°
2026-04-25 12:30 -10.00569 147.35941 22769 ft 480 kts 335°
2026-04-25 12:30 -9.97611 147.34605 22151 ft 450 kts 335°
2026-04-25 12:30 -9.94812 147.33372 21610 ft 428 kts 335°
2026-04-25 12:31 -9.92116 147.32207 21050 ft 415 kts 336°
2026-04-25 12:31 -9.89525 147.31075 20520 ft 408 kts 335°
2026-04-25 12:31 -9.86916 147.29919 19986 ft 410 kts 335°
2026-04-25 12:31 -9.84299 147.28765 19450 ft 411 kts 336°
2026-04-25 12:32 -9.81667 147.27616 18910 ft 410 kts 336°
2026-04-25 12:32 -9.79054 147.26474 18365 ft 406 kts 336°
2026-04-25 12:32 -9.76484 147.25344 17787 ft 400 kts 336°
2026-04-25 12:32 -9.73939 147.24225 17259 ft 396 kts 336°
2026-04-25 12:33 -9.71411 147.23117 16739 ft 394 kts 336°
2026-04-25 12:33 -9.68904 147.22020 16221 ft 391 kts 336°
2026-04-25 12:33 -9.66448 147.20943 15710 ft 388 kts 336°
2026-04-25 12:33 -9.63990 147.19865 15191 ft 384 kts 336°
2026-04-25 12:34 -9.61544 147.18794 14691 ft 380 kts 336°
2026-04-25 12:34 -9.59130 147.17736 14189 ft 377 kts 336°
2026-04-25 12:34 -9.56725 147.16682 13686 ft 374 kts 336°
2026-04-25 12:34 -9.55145 147.15990 13332 ft 371 kts 336°
2026-04-25 12:35 -9.51998 147.14612 12677 ft 367 kts 336°
2026-04-25 12:35 -9.49669 147.13566 12187 ft 363 kts 334°
2026-04-25 12:35 -9.47498 147.12263 11714 ft 361 kts 328°
2026-04-25 12:35 -9.45347 147.10965 11239 ft 354 kts 331°
2026-04-25 12:36 -9.43201 147.09863 10776 ft 337 kts 334°
2026-04-25 12:36 -9.41173 147.08882 10322 ft 317 kts 334°
2026-04-25 12:36 -9.39232 147.07954 9876 ft 301 kts 334°
2026-04-25 12:36 -9.37371 147.07060 9191 ft 293 kts 334°
2026-04-25 12:37 -9.35523 147.06146 8290 ft 296 kts 334°
2026-04-25 12:37 -9.33714 147.05239 7825 ft 283 kts 335°
2026-04-25 12:37 -9.31853 147.04609 6853 ft 287 kts 349°
2026-04-25 12:37 -9.29815 147.04579 5790 ft 296 kts 10°
2026-04-25 12:38 -9.27994 147.05274 5653 ft 265 kts 35°
2026-04-25 12:38 -9.26898 147.06676 5319 ft 254 kts 70°
2026-04-25 12:38 -9.26812 147.08467 4442 ft 263 kts 103°
2026-04-25 12:38 -9.27486 147.10167 3928 ft 253 kts 114°
2026-04-25 12:39 -9.28190 147.11764 3565 ft 245 kts 113°
2026-04-25 12:39 -9.29087 147.13206 3121 ft 244 kts 135°
2026-04-25 12:39 -9.30570 147.13940 2853 ft 235 kts 159°
2026-04-25 12:39 -9.32043 147.14534 2579 ft 219 kts 150°
2026-04-25 12:40 -9.33237 147.15261 2283 ft 184 kts 146°
2026-04-25 12:40 -9.34252 147.15889 2051 ft 160 kts 146°
2026-04-25 12:40 -9.35150 147.16450 1865 ft 146 kts 144°
2026-04-25 12:40 -9.36000 147.16985 1647 ft 142 kts 144°
2026-04-25 12:41 -9.36809 147.17511 1357 ft 137 kts 146°
2026-04-25 12:41 -9.37595 147.18004 1186 ft 130 kts 147°
2026-04-25 12:41 -9.38355 147.18482 1035 ft 128 kts 147°
2026-04-25 12:41 -9.39118 147.18951 886 ft 129 kts 149°
2026-04-25 12:42 -9.39863 147.19394 880 ft 118 kts 147°
2026-04-25 12:42 -9.40326 147.19664 832 ft 116 kts 146°
2026-04-25 12:42 -9.41245 147.20252 628 ft 116 kts 146°
2026-04-25 12:42 -9.41922 147.20686 527 ft 117 kts 150°
2026-04-25 12:43 -9.42626 147.21125 296 ft 118 kts 151°
2026-04-25 12:43 -9.43317 147.21535 134 ft 109 kts 149°
2026-04-25 12:43 -9.43908 147.21842 116 ft 12 kts 231°
2026-04-25 12:44 -9.44011 147.21681 121 ft 28 kts 239°
2026-04-25 12:44 -9.44030 147.21513 121 ft 24 kts 312°
2026-04-25 12:44 -9.43834 147.21258 113 ft 20 kts 285°
2026-04-25 12:45 -9.43823 147.21181 114 ft 0 kts 244°